Location: Unspecified
(0.0000°N, 0.0000°E)
Time: 23:55:10
(UTC+00:00)

S-56A Canister/Altair - Pass Details

Date: 01 October 2020
Orbit: 633 x 2499 km, 38.9° (Epoch: 28 October)

Event Time Altitude Azimuth Distance (km) Brightness Sun altitude
Rises 07:15:19 0° 185° (S) 3,973 11.2 21.4°
Reaches altitude 10° 07:21:53 10° 145° (SE) 3,573 11.6 23.0°
Maximum altitude 07:23:05 10° 137° (SE) 3,650 11.8 23.3°
Drops below altitude 10° 07:24:21 10° 129° (SE) 3,776 12.1 23.6°
Sets 07:33:02 0° 93° (E) 5,410 13.2 25.8°
